Regional Weather Roundup
Issued by NWS

Home | Current Version | Previous Version | Text Only | Print | Product List | Glossary On
Versions: 1 2 3 4 5 6 7 8 9 10 11 12 13 14 15 16 17 18 19 20 21 22 23 24 25 26 27 28 29 30 31 32 33 34 35 36 37 38 39 40 41 42 43 44 45 46 47 48 49 50
000
ASUS43 KMKX 210800
RWRWI

WISCONSIN REGIONAL WEATHER ROUNDUP
NATIONAL WEATHER SERVICE MILWAUKEE/SULLIVAN WI
300 AM CDT SUN SEP 21 2014

NOTE: "FAIR" INDICATES FEW OR NO CLOUDS BELOW 12,000 FEET WITH NO
SIGNIFICANT WEATHER AND/OR OBSTRUCTIONS TO VISIBILITY.

WIZ001-002-006>008-014>016-023>028-210900-
NORTHWEST WISCONSIN

CITY           SKY/WX    TMP DP  RH WIND       PRES   REMARKS
SUPERIOR ARPT  LGT RAIN  54  52  94 NW12G17   29.79R
ASHLAND        CLOUDY    53  51  93 NE18      29.77R
HAYWARD        LGT RAIN  54  52  93 VRB7      29.76R
SIREN          LGT RAIN  51  49  93 NW13G21   29.81S
RICE LAKE      DRIZZLE   51  48  90 W16G22    29.79R
LADYSMITH      LGT RAIN  53  51  94 NW15      29.74R
EAU CLAIRE     NOT AVBL
MENOMONIE      CLOUDY    56  47  71 NW17G30   29.79S
NEW RICHMOND   MOCLDY    53  46  77 NW13G22   29.84R
OSCEOLA        CLEAR     53  47  82 NW10G16   29.87R
$$

WIZ003>005-009-010-017-018-210900-
NORTH CENTRAL WISCONSIN

CITY           SKY/WX    TMP DP  RH WIND       PRES   REMARKS
WOODRUFF       RAIN      52  50  93 N6        29.69S
RHINELANDER    LGT RAIN  52  50  93 N3        29.69R
EAGLE RIVER    RAIN      52  51  98 N7        29.69R
LAND O LAKES   LGT RAIN  52  51  94 N5        29.71R
PHILLIPS       RAIN      51  50  97 NW3       29.70R
TOMAHAWK       RAIN      52  51  96 CALM      29.69S
MEDFORD        DRIZZLE   51  50  95 W10G17    29.69S
MERRILL        RAIN      54  53  98 W7        29.67F
$$

WIZ029-030-035-036-043>047-210900-
CENTRAL WISCONSIN

CITY           SKY/WX    TMP DP  RH WIND       PRES   REMARKS
WAUSAU         LGT RAIN  54  52  93 W12       29.66F
MOSINEE        DRIZZLE   52  52 100 W13       29.69F
MARSHFIELD     CLOUDY    55  50  83 W15G22    29.70F
STEVENS POINT  CLOUDY    53  51  91 W9G16     29.69F
WAUPACA        MOCLDY    57  55  94 W9        29.69F
WAUTOMA        NOT AVBL
WISC RAPIDS    MOCLDY    54  51  90 W13G21    29.72F
CAMP DOUGLAS   NOT AVBL
$$

WIZ011>013-019>022-031-037>040-048>050-210900-
NORTHEAST WISCONSIN

CITY           SKY/WX    TMP DP  RH WIND       PRES   REMARKS
ANTIGO         CLOUDY    52  51  98 W3        29.68S
STURGEON BAY   MOCLDY    55  52  88 NW9       29.64S
GREEN BAY      MOCLDY    57  55  93 W9        29.66S
MANITOWOC      NOT AVBL
APPLETON       CLOUDY    54  54 100 W7        29.68F
CLINTONVILLE   CLOUDY    55  54  94 NW5       29.66F
OSHKOSH        CLOUDY    57  54  89 W13G21    29.67F
$$

WIZ032>034-041-042-053>061-210900-
SOUTHWEST WISCONSIN

CITY           SKY/WX    TMP DP  RH WIND       PRES   REMARKS
LA CROSSE      PTCLDY    60  50  69 W18G24    29.79S
SPARTA         MOCLDY    55  48  76 W7        29.78R
VIROQUA        FAIR      54  53  98 W13G18    29.79F
BOSCOBEL       CLEAR     57  52  83 SW8       29.81F
PRAIRIE DU CHI CLEAR     55  51  86 W3        29.84S
PLATTEVILLE    FAIR      54  53  94 W9        29.84S
$$

WIZ056-057-062-063-064-067-068-210900-
SOUTH CENTRAL WISCONSIN

CITY           SKY/WX    TMP DP  RH WIND       PRES   REMARKS
BARABOO/DELLS  CLEAR     54  50  85 W12       29.75F
LONE ROCK      NOT AVBL
WATERTOWN      MOCLDY    57  55  92 W13G18    29.73S
MADISON        CLEAR     57  51  80 W6        29.75F
MIDDLETON      FAIR      56  54  90 W10       29.76F
MONROE         CLEAR     55  52  88 W13G18    29.80S
JANESVILLE     CLEAR     59  52  77 W12       29.77S
$$

WIZ051-052-058>065-066-070>072-210900-
SOUTHEAST WISCONSIN

CITY           SKY/WX    TMP DP  RH WIND       PRES   REMARKS
MILWAUKEE      MOCLDY    61  55  81 W14G30    29.70R
WAUKESHA       CLOUDY    55  54  94 W16G23    29.72S
MILWAUKEE/TIMM CLOUDY    59  54  82 W13G21    29.70R
RACINE         MOCLDY    61  56  83 W15G25    29.71S
BURLINGTON     PTCLDY    58  55  89 W12       29.73S
KENOSHA        PTCLDY    60  56  86 NW18G25   29.72R
FOND DU LAC    MOCLDY    58  53  84 NW12G21   29.69F
SHEBOYGAN      MOCLDY    58  54  86 W13       29.67R
WEST BEND      CLOUDY    59  54  82 W14G25    29.69R
JUNEAU         CLOUDY    57  53  89 W13       29.73S
$$

LSZ147-162-210900-
LAKE SUPERIOR

STATION/POSITION TIME  TEMP    WIND        PRES    WAVE
                       AIR SEA DIR/SP/G            HT/PER
                 (UTC) (F)     (DEG/KT/KT) (MB)    (FT/S)
W MID LAKE BUOY  0650   49 46   20/ 17/ 19 1007.1R   1/ 3
DEVILS ISLAND    0700   51      50/ 26/ 30 1007.9R
PORT WING        0721   53      10/ 21/ 25 1008.5R
SAXON HARBOR     0712   56      40/ 20/ 25 1006.4S
$$

LMZ867-665-643>646-210900-
LAKE MICHIGAN

STATION/POSITION TIME  TEMP    WIND        PRES    WAVE
                       AIR SEA DIR/SP/G            HT/PER
                 (UTC) (F)     (DEG/KT/KT) (MB)    (FT/S)
N MID LAKE BUOY  0650   57 58   30/ 14/ 16 1003.2F   2/ 7
NORTHPORT PIER   0700   56      70/  2/ 13 1004.1F
SISTER BAY       0612             CALM       N/A
KEWAUNEE LAKESHO 0700   56     280/  3/  4 1002.5F
SHEBOYGAN LAKESH 0700   59 54  280/ 12/ 14 1004.2R
PORT WASHINGTON  0740   60     300/  7/ 14 1005.8R
ATWATER BUOY     0700   60     270/ 14/ 16 1006.1S
MILWAUKEE LAKESH 0700   62     280/ 11/ 16   N/A
S MID LAKE BUOY  0650   63 63  270/ 14/ 16 1004.4R   2/ 3
KENOSHA   LAKESH 0700   64     280/ 13/ 17 1005.8R
$$

TC  - TEMPERATURE IN CELSIUS
VSB - VISIBILITY IN STATUTE MILES
WCI - WIND CHILL INDEX
HX  - HEAT INDEX




USA.gov is the U.S. government's official web portal to all federal, state and local government web resources and services.